Flag for Turkey Weather past 2 weeks in Bodrum, Turkey

Now
71 °F

Clear.


Feels Like: 76 °F
Forecast: 64 / 74 °F
Wind: 3 mph from North

Location: Bodrum

Current Time: May 23, 2015 at 5:06:42 AM

Latest Report: May 23, 2015 at 3:00 AM


Visibility: 13 mi

Pressure: 29.86 "Hg

Humidity: 59%

Dew point: 56 °F

Location of BodrumLocation

Historic Weather in Bodrum — Graph

°F

Bodrum temperature yesterday

Maximum temperature yesterday: 85 °F (at 2:00 PM)
Minimum temperature yesterday: 65 °F (at 6:00 AM)
Average temperature yesterday: 78 °F

Past Weeks' High & Low Weather Summary

 TemperatureHumidityPressure
High86 °F (May 8, 5:00 PM)92% (May 12, 3:00 AM)30.20 "Hg (May 12, 3:00 AM)
Low62 °F (May 12, 6:00 AM)27% (May 19, 1:00 PM)29.68 "Hg (May 9, 9:00 PM)
Average73 °F60%29.90 "Hg
* Reported May 8 3:00 AM — May 23 3:00 AM, Bodrum, Weather by CustomWeather, © 2015

Note: Actual official high and low records may vary slightly from our data, if they occured in-between our weather recording intervals... More about our weather records

Advertising

Bodrum weather history for previous 24 hours

 ConditionsComfort  
Time TempWeatherWind HumidityBarometerVisibility
3:00 AM
Sat, May 23
71 °FClear.3 mph59%29.86 "Hg12 mi
12:00 AM71 °FPassing clouds.1 mph58%29.90 "Hg12 mi
9:00 PM
Fri, May 22
75 °FPassing clouds.1 mph51%29.87 "Hg12 mi
8:00 PM79 °FPartly sunny.2 mph38%29.86 "Hg12 mi
7:00 PM82 °FPartly sunny.5 mph37%29.86 "Hg12 mi
6:00 PM80 °FPartly sunny.2 mph41%29.86 "Hg12 mi
5:00 PM83 °FPartly sunny.3 mph34%29.86 "Hg12 mi
4:00 PM84 °FPartly sunny.8 mph37%29.87 "Hg12 mi
3:00 PM84 °FPartly sunny.7 mph37%29.88 "Hg12 mi
2:00 PM85 °FPartly sunny.8 mph36%29.88 "Hg12 mi
1:00 PM83 °FPartly sunny.6 mph36%29.90 "Hg12 mi
12:00 PM82 °FPartly sunny.6 mph35%29.92 "Hg12 mi
11:00 AM79 °FPartly sunny.6 mph41%29.91 "Hg12 mi
10:00 AM76 °FPartly sunny.3 mph54%29.90 "Hg12 mi
9:00 AM75 °FPartly sunny.3 mph54%29.90 "Hg12 mi
6:00 AM65 °FSunny.2 mph76%29.90 "Hg12 mi
Weather by CustomWeather, © 2015

See weather overviewHow to use our weather pages